CZ-3B R/B, 40750

Orbit data source: Space-Track

CZ-3B R/B, 40750 is space debris originally from a launch on Sat, 25 Jul 2015 UTC launched from the Xichang Space Center, China (XSC). Debris objects in space refer to the collection of defunct objects orbiting the Earth. Examples of debris include non-operational satellites, rocket bodies, and fragments generated from explosions, collisions, or faulty payload assembly.

Loading next visibility...
Identifier
40750, 2015-037C
Orbit
Active
Country
Flag of CNCN / PRC
Related business
Manufacturer
CALT
Mission
Spacecraft
Bus & Motor
CZ-3A STAGE 3, Unknown motor
Mass
~2,800 kg wet, ~2,800 kg dry
Launch date (UTC)
2015-07-25 (10 years ago)
Launch vehicle
Unknown
Launch site
Xichang Space Center, China (XSC)
Object type
Payload
Rocket body
Debris
Shape & HBR
Cyl + 1 Nozzle, 6.2 m
Radar Cross Section
32.704 m², Large (>1 m²)

Expand to show TLE details & history
Last TLE update: 1 day ago

TLE from 1 day ago
0 CZ-3B R/B
1 40750U 15037C   25309.68515153  .01473033  14195-5  79962-3 0  9997
2 40750  54.8270  62.7594 2833276 159.0612 215.4682  9.99974964190736
Epoch: 2025-11-05T16:26Z
TLE epoch observation values (Epoch: 2025-11-05T16:26:37.092Z)
Latitude
0.00003°
Longitude
130.9506°
Altitude
5,002.969 km
Speed
5.125 km/s
True Right ascension
04h 11m 02s
True Declination
0° 00' 00"
Sunlit
Object was in full shadow at epoch
Visualization orbit readout
Latitude
Unknown
Longitude
Unknown
Altitude
Unknown
Speed
Unknown
Apparent Right ascension
Unknown
Apparent Declination
Unknown
Sunlit
N/A
Visualization observer readout
Local Sidereal Time
15:13:33
Azimuth
Unknown
Elevation
Unknown
Doppler factor
Unknown
Orbital elements
Apogee altitude
5,301.06 km
Perigee altitude
144.093 km
Semi-major axis
9,100.713 km
Eccentricity
0.28333
Inclination
54.827°
RAAN
62.7594°
Arg. of periapsis
159.0612°
True anomaly
201.01497°
Mean anomaly
215.4682°
Eccentric anomaly
207.87767°
Mean motion
2.49994 °/min
Orbital period
144 mins
BSTAR
0.00079962
Loading maneuver chart data...
Computing Atmospheric mass density...
Loading historical data...
Loading historical data...
Loading historical data...
Loading historical data...
Loading historical data...
Loading historical data...
Loading historical data...
Other satellites on launch #37 in the year 2015 (2015-07-25 UTC)

Documentation

Showing up to 5 results
|